Tracking 19717 objects as of 25-Jun-2019
HD Live streaming from Space Station
objects crossing your sky now

FLOCK 3P 34

Track FLOCK 3P 34 now!
10-day predictions
FLOCK 3P 34 is classified as:


NORAD ID: 41988
Int'l Code: 2017-008AS
Perigee: 490.3 km
Apogee: 503.0 km
Inclination: 97.4 °
Period: 94.4 minutes
Semi major axis: 6867 km
RCS: Unknown
Launch date: February 15, 2017
Source: United States (US)
Launch site: SRIHARIKOTA (SRI)
aabbcc
Your satellite tracking list
Your tracking list is empty




NASA's NSSDC Master Catalog

Two Line Element Set (TLE):
1 41988U 17008AS  19176.17910038  .00000650  00000-0  28537-4 0  9999
2 41988  97.4067 243.1798 0009246 114.4923 245.7280 15.25417841130273
Source of the keplerian elements: AFSPC